Total_Precipitation_Accumulation
1.28 1.28 1.38 1.55 1.66 1.72 1.91 1.90 1.85 1.87 1.98 2.00 1.99 1.98 1.91 1.81 1.93 2.15 2.25 2.44 2.58 2.62 2.57 2.61 2.60 2.73 2.78 2.66 2.76 2.91 3.16 3.34 2.97 2.43 2.52 2.65 2.59 2.35 2.12 1.93 1.80 1.78 1.76
1.27 1.31 1.38 1.49 1.57 1.66 1.76 1.87 1.93 1.92 2.02 2.06 2.06 2.01 1.84 1.82 1.93 2.04 2.16 2.35 2.47 2.55 2.65 2.75 2.54 2.68 2.80 2.74 2.76 2.77 2.92 3.20 3.04 2.85 2.79 2.86 2.79 2.52 2.27 2.00 1.68 1.53 1.59
1.41 1.39 1.36 1.43 1.42 1.49 1.62 1.73 1.86 1.94 2.03 2.13 2.16 2.06 2.00 2.02 2.09 2.14 2.22 2.35 2.43 2.48 2.57 2.58 2.54 2.70 2.59 2.67 2.78 2.72 2.74 2.79 2.90 2.81 2.66 2.72 2.64 2.46 2.27 1.98 1.73 1.69 1.51
1.31 1.35 1.39 1.40 1.46 1.57 1.68 1.77 1.86 1.88 1.95 1.96 1.93 2.01 2.08 2.12 2.15 2.16 2.16 2.18 2.23 2.28 2.25 2.16 2.13 2.19 2.25 2.47 2.46 2.45 2.55 2.64 2.72 2.61 2.53 2.59 2.58 2.61 2.45 2.15 1.99 1.84 1.63
1.33 1.30 1.38 1.50 1.54 1.59 1.62 1.67 1.74 1.76 1.74 1.91 1.93 2.04 2.12 2.08 1.97 2.05 2.08 2.02 2.17 2.08 1.92 1.88 1.89 1.99 2.03 2.11 2.00 2.10 2.32 2.39 2.43 2.49 2.52 2.67 2.66 2.77 2.62 2.34 2.22 2.10 1.80
1.35 1.46 1.56 1.56 1.48 1.56 1.60 1.64 1.68 1.75 1.84 1.92 1.96 2.07 2.13 1.98 2.04 2.09 2.11 2.08 2.11 2.03 1.97 1.89 1.75 1.75 1.76 1.77 1.77 1.82 1.98 2.11 2.27 2.44 2.47 2.55 2.61 2.59 2.57 2.43 2.33 2.16 1.88
1.41 1.43 1.63 1.75 1.65 1.72 1.75 1.77 1.76 1.79 1.94 2.02 2.13 2.19 2.13 2.24 2.19 2.03 2.04 1.98 2.00 2.02 2.03 1.99 1.69 1.51 1.66 1.61 1.73 1.72 1.68 1.73 1.84 2.00 2.08 2.20 2.42 2.53 2.62 2.52 2.52 2.39 2.08
1.51 1.60 1.87 2.04 1.91 1.90 1.92 1.94 1.99 2.09 2.16 2.23 2.23 2.15 2.13 2.23 2.21 1.88 1.78 1.69 1.77 1.85 1.88 1.92 1.92 1.81 1.79 1.82 1.86 1.84 1.74 1.69 1.78 1.77 1.78 2.00 2.36 2.67 2.72 2.65 2.69 2.56 2.24
1.71 1.85 2.11 2.34 2.45 2.40 2.25 2.31 2.39 2.38 2.36 2.43 2.44 2.38 2.26 2.28 2.14 1.77 1.63 1.53 1.64 1.72 1.76 1.75 1.77 1.69 1.75 1.66 1.63 1.64 1.63 1.58 1.58 1.58 1.59 1.71 2.00 2.37 2.58 2.61 2.68 2.58 2.34
1.92 1.95 2.15 2.39 2.49 2.46 2.43 2.59 2.69 2.59 2.49 2.53 2.44 2.32 2.20 2.21 2.17 1.84 1.62 1.51 1.63 1.72 1.81 1.77 1.74 1.67 1.65 1.49 1.40 1.44 1.41 1.43 1.52 1.51 1.47 1.47 1.59 1.89 2.22 2.21 2.29 2.42 2.18
2.01 2.01 2.13 2.36 2.63 2.57 2.59 2.66 2.73 2.73 2.73 2.73 2.63 2.50 2.32 2.26 2.27 1.94 1.72 1.56 1.62 1.67 1.60 1.58 1.57 1.57 1.37 1.29 1.27 1.27 1.29 1.31 1.44 1.47 1.47 1.51 1.59 1.67 1.80 1.88 1.99 2.08 2.07
2.03 2.02 2.08 2.34 2.47 2.52 2.66 2.71 2.80 2.89 2.86 2.82 2.79 2.59 2.52 2.45 2.18 1.90 1.71 1.65 1.69 1.71 1.65 1.60 1.59 1.48 1.25 1.16 1.05 1.00 1.05 1.03 1.06 1.19 1.25 1.29 1.38 1.46 1.57 1.72 1.91 1.99 2.01
1.79 1.80 1.92 2.12 2.22 2.36 2.47 2.42 2.47 2.60 2.58 2.58 2.58 2.50 2.53 2.64 2.45 1.99 1.70 1.61 1.64 1.67 1.76 1.82 1.63 1.46 1.31 1.17 1.12 1.04 0.95 0.88 0.96 1.06 1.11 1.12 1.19 1.32 1.52 1.73 1.92 2.13 2.08
1.72 1.69 1.81 2.06 2.19 2.27 2.32 2.29 2.34 2.38 2.44 2.49 2.52 2.45 2.48 2.62 2.57 2.24 1.90 1.69 1.59 1.53 1.53 1.53 1.42 1.35 1.24 1.12 1.05 0.95 0.85 0.88 0.95 0.97 1.04 1.12 1.23 1.41 1.53 1.56 1.68 1.92 2.10
1.85 1.84 1.95 2.04 2.12 2.29 2.35 2.37 2.36 2.35 2.32 2.32 2.31 2.25 2.26 2.37 2.39 2.17 1.88 1.69 1.57 1.53 1.49 1.46 1.42 1.43 1.33 1.23 1.16 1.11 1.10 1.12 1.08 1.04 1.11 1.22 1.28 1.36 1.48 1.57 1.66 1.74 1.78
1.97 1.95 1.95 1.93 1.99 2.01 2.04 1.99 1.95 1.88 1.86 1.83 1.82 1.72 1.69 1.85 1.84 1.56 1.42 1.45 1.46 1.42 1.32 1.33 1.39 1.44 1.39 1.32 1.27 1.22 1.23 1.22 1.19 1.20 1.23 1.30 1.36 1.40 1.48 1.64 1.79 1.82 1.73
2.02 1.88 1.78 1.72 1.76 1.76 1.80 1.86 1.91 1.80 1.71 1.61 1.52 1.40 1.30 1.49 1.56 1.39 1.27 1.23 1.21 1.20 1.18 1.23 1.27 1.35 1.41 1.32 1.22 1.16 1.14 1.18 1.28 1.31 1.31 1.35 1.44 1.50 1.57 1.67 1.81 1.94 1.87
2.04 1.91 1.71 1.61 1.63 1.66 1.77 1.81 1.81 1.80 1.74 1.53 1.37 1.27 1.14 1.22 1.34 1.31 1.22 1.08 1.04 1.03 1.05 1.16 1.23 1.29 1.37 1.34 1.26 1.26 1.28 1.31 1.31 1.32 1.35 1.38 1.47 1.54 1.60 1.65 1.72 1.81 1.84
2.02 1.91 1.76 1.70 1.71 1.65 1.61 1.66 1.65 1.65 1.70 1.60 1.39 1.30 1.23 1.24 1.33 1.29 1.16 0.99 1.01 1.02 1.04 1.10 1.17 1.25 1.29 1.29 1.30 1.34 1.35 1.38 1.35 1.36 1.41 1.47 1.49 1.59 1.60 1.65 1.75 1.87 1.88
1.71 1.71 1.66 1.67 1.67 1.61 1.60 1.63 1.69 1.74 1.78 1.68 1.50 1.39 1.27 1.23 1.26 1.27 1.16 1.07 1.07 1.04 1.04 1.10 1.18 1.23 1.28 1.32 1.40 1.48 1.50 1.53 1.55 1.51 1.53 1.59 1.55 1.57 1.59 1.62 1.73 1.80 1.81
1.53 1.47 1.42 1.39 1.41 1.44 1.46 1.58 1.71 1.77 1.80 1.68 1.44 1.29 1.17 1.03 1.11 1.13 1.18 1.23 1.23 1.25 1.27 1.26 1.31 1.36 1.39 1.47 1.55 1.62 1.64 1.64 1.67 1.61 1.59 1.65 1.65 1.67 1.69 1.65 1.67 1.78 1.80
1.61 1.43 1.26 1.21 1.24 1.31 1.48 1.62 1.65 1.63 1.57 1.49 1.37 1.26 1.24 1.11 1.09 1.12 1.17 1.18 1.21 1.26 1.26 1.26 1.25 1.31 1.36 1.43 1.48 1.53 1.56 1.58 1.63 1.66 1.64 1.65 1.65 1.63 1.66 1.65 1.62 1.70 1.80
1.43 1.24 1.06 1.01 1.06 1.21 1.42 1.64 1.65 1.53 1.40 1.34 1.34 1.32 1.30 1.25 1.18 1.16 1.18 1.19 1.19 1.17 1.18 1.26 1.28 1.29 1.31 1.30 1.30 1.37 1.41 1.43 1.45 1.53 1.63 1.60 1.61 1.62 1.64 1.69 1.68 1.70 1.78
1.30 1.14 1.00 0.97 1.03 1.17 1.36 1.58 1.57 1.45 1.36 1.36 1.36 1.37 1.38 1.35 1.27 1.22 1.21 1.23 1.22 1.18 1.16 1.22 1.26 1.23 1.22 1.23 1.19 1.15 1.16 1.17 1.18 1.29 1.44 1.55 1.58 1.63 1.62 1.66 1.72 1.71 1.78
1.20 1.14 1.04 1.05 1.11 1.27 1.48 1.62 1.55 1.42 1.37 1.34 1.32 1.40 1.44 1.41 1.39 1.36 1.36 1.39 1.38 1.36 1.29 1.23 1.23 1.18 1.11 1.11 1.14 1.13 1.16 1.07 1.01 1.07 1.17 1.31 1.37 1.47 1.53 1.57 1.68 1.72 1.74
1.15 1.15 1.11 1.14 1.24 1.37 1.49 1.55 1.51 1.43 1.43 1.38 1.34 1.36 1.42 1.46 1.50 1.53 1.54 1.50 1.44 1.40 1.31 1.24 1.20 1.18 1.12 1.06 1.03 1.03 1.03 0.98 0.94 1.00 1.04 1.12 1.22 1.30 1.41 1.48 1.52 1.60 1.62